This demonstration page uses our WeatherBlox Daily Observations layout. Learn more.

39.01783, -85.05884

Hourly Observations for August 18, 2020

Temp ( °F °C ) Dew Point ( °F °C ) Humidity (%) Winds ( mph kmh ) Pressure ( in mb ) Visibility ( mi km ) Precip ( " mm )
12:52 am 00:52 Mostly Cloudy 69 20.6 65 18.3 87 87 Calm 29.96 1014 10 16.0934 0 0
1:52 am 01:52 Mostly Cloudy 72 22.2 63 17.2 73 73 Calm 29.95 1014 10 16.0934 0 0
2:52 am 02:52 Cloudy 69 20.6 64 17.8 84 84 Calm 29.93 1014 10 16.0934 0 0
3:52 am 03:52 Partly Cloudy 68 20 63 17.2 84 84 Calm 29.93 1014 10 16.0934 0 0
4:52 am 04:52 Mostly Cloudy 70 21.1 62 16.7 76 76 ESE 3 6 29.92 1013 10 16.0934 0 0
5:52 am 05:52 Mostly Cloudy 69 20.6 63 17.2 81 81 ESE 6 9 29.92 1013 10 16.0934 0 0
6:52 am 06:52 Mostly Cloudy 69 20.6 63 17.2 81 81 SE 7 11 29.93 1014 10 16.0934 0 0
7:52 am 07:52 Mostly Cloudy 71 21.7 65 18.3 81 81 NNE 7 11 29.94 1014 10 16.0934 0 0
8:52 am 08:52 Mostly Cloudy 72 22.2 61 16.1 68 68 NE 13 20 29.95 1014 10 16.0934 0 0
9:52 am 09:52 Mostly Cloudy 72 22.2 59 15 64 64 NE 9 15 29.96 1014 10 16.0934 0 0
10:52 am 10:52 Cloudy 71 21.7 60 15.6 68 68 NNE 12 19 29.97 1015 10 16.0934 0 0
11:18 am 11:18 Cloudy with Light Rain 69 20.6 60 15.6 73 73 NE 12 19 29.98 1015 6 9.65604 0.001 0.001
11:38 am 11:38 Mostly Cloudy with Nearby Thunderstorms 68 20 62 16.7 81 81 NE 14 22 29.97 1015 10 16.0934 0.09 2.286
11:52 am 11:52 Mostly Cloudy with Nearby Thunderstorms 67 19.4 61 16.1 81 81 N 14 22 29.99 1016 10 16.0934 0.09 2.286
11:55 am 11:55 Cloudy with Nearby Thunderstorms 67 19.4 60 15.6 79 79 NNW 13 20 29.99 1016 10 16.0934 0.001 0.001
12:02 pm 12:02 Cloudy with Nearby Thunderstorms 65 18.3 60 15.6 84 84 VRB 7 11 30.01 1016 4 6.43736 0.03 0.762
12:12 pm 12:12 Cloudy with Heavy Rain 64 17.8 60 15.6 87 87 NE 20 31 29.97 1015 1.5 2.41401 0.36 9.144
12:18 pm 12:18 Cloudy with Light Rain 64 17.8 61 16.1 90 90 NE 15 24 29.98 1015 3 4.82802 0.44 11.176
12:26 pm 12:26 Cloudy with Light Rain 64 17.8 60 15.6 87 87 NE 10 17 29.99 1016 3 4.82802 0.45 11.43
12:32 pm 12:32 Cloudy with Light Rain 64 17.8 61 16.1 90 90 NE 10 17 29.98 1015 8 12.87472 0.45 11.43
12:52 pm 12:52 Cloudy 66 18.9 62 16.7 87 87 NE 13 20 29.98 1015 8 12.87472 0.45 11.43
1:34 pm 13:34 Cloudy with Nearby Thunderstorms 65 18.3 61 16.1 87 87 NE 10 17 29.96 1015 7 11.26538 0.001 0.001
1:45 pm 13:45 Cloudy with Thunderstorms 65 18.3 61 16.1 87 87 NNE 12 19 29.96 1015 4 6.43736 0.03 0.762
1:52 pm 13:52 Cloudy with Thunderstorms 65 18.3 62 16.7 90 90 N 10 17 29.96 1015 4 6.43736 0.07 1.778
2:08 pm 14:08 Cloudy with Thunderstorms 64 17.8 62 16.7 93 93 NW 12 19 29.98 1015 3 4.82802 0.09 2.286
2:17 pm 14:17 Cloudy with Thunderstorms 64 17.8 61 16.1 90 90 NW 7 11 29.98 1015 2.5 4.02335 0.14 3.556
2:35 pm 14:35 Cloudy with Thunderstorms 63 17.2 61 16.1 93 93 ESE 7 11 29.97 1015 3 4.82802 0.37 9.398
2:52 pm 14:52 Cloudy with Thunderstorms 64 17.8 61 16.1 90 90 E 8 13 29.95 1014 4 6.43736 0.4 10.16
3:03 pm 15:03 Cloudy with Nearby Thunderstorms 64 17.8 61 16.1 90 90 ENE 7 11 29.95 1014 6 9.65604 0.01 0.254
3:21 pm 15:21 Cloudy with Nearby Thunderstorms 65 18.3 61 16.1 87 87 E 6 9 29.97 1015 6 9.65604 0.03 0.762
3:38 pm 15:38 Cloudy with Light Rain 65 18.3 62 16.7 90 90 ENE 5 7 29.96 1015 6 9.65604 0.05 1.27
3:52 pm 15:52 Cloudy with Light Rain 65 18.3 62 16.7 90 90 NE 10 17 29.95 1014 9 14.48406 0.06 1.524
4:52 pm 16:52 Cloudy with Light Rain 67 19.4 63 17.2 87 87 E 5 7 29.94 1014 10 16.0934 0.001 0.001
5:52 pm 17:52 Cloudy 68 20 63 17.2 84 84 N 8 13 29.93 1014 10 16.0934 0.001 0.001
6:52 pm 18:52 Cloudy 68 20 64 17.8 87 87 N 9 15 29.93 1013 10 16.0934 0 0
7:52 pm 19:52 Mostly Cloudy 69 20.6 63 17.2 81 81 N 7 11 29.93 1014 10 16.0934 0 0
8:52 pm 20:52 Mostly Cloudy 69 20.6 60 15.6 73 73 NNE 5 7 29.95 1014 10 16.0934 0 0
9:52 pm 21:52 Mostly Cloudy 66 18.9 61 16.1 84 84 N 8 13 29.96 1015 10 16.0934 0 0
10:52 pm 22:52 Mostly Clear 66 18.9 62 16.7 87 87 N 5 7 29.96 1015 10 16.0934 0 0
11:52 pm 23:52 Mostly Clear 65 18.3 62 16.7 90 90 N 5 7 29.98 1015 10 16.0934 0 0

Powered by AerisWeather